Theta_e
346 347 350 354 354 353 355 356 359 358 359 356 350 352 353 351 354 354 355 354 354 352 350 351 351 353 355 355 355 355 357 359 357 356 354 351 349 350 350 349 349 348 348 349 349 348 347 347 346 347 346 346 346 345 344 343 342 341 340 340 339 338 339 339 340 340 341 341 340 338 336 334 333 335 336 337 338 340 341 342 342 343 343 342 341 339 339 341 342 342 343 343 343 342 342 340 339
348 351 354 356 355 355 355 355 360 359 357 354 350 355 352 351 354 353 353 352 351 349 351 352 353 354 355 354 354 355 356 355 354 353 351 349 350 351 349 348 348 347 348 348 348 347 346 346 346 346 346 346 346 345 344 343 342 342 341 339 339 339 339 339 339 340 341 340 339 339 337 336 334 335 336 338 339 340 341 341 342 343 343 342 340 339 340 341 342 342 343 343 343 342 342 340 339
349 354 356 356 356 356 356 358 360 357 354 349 348 355 353 354 354 351 350 350 351 350 351 352 353 355 354 354 354 355 356 354 350 350 351 351 352 351 349 349 348 348 348 347 347 346 346 345 345 346 346 346 345 345 344 343 342 341 341 339 339 339 339 338 338 338 339 339 339 339 337 337 336 336 337 338 339 339 340 340 341 342 342 341 340 339 340 340 341 342 341 342 341 341 341 341 339
352 356 356 357 356 356 359 362 363 359 356 346 346 354 354 355 352 349 350 349 352 351 351 352 353 354 354 355 354 355 355 354 351 350 352 352 350 350 350 348 348 348 348 347 347 346 346 345 345 346 345 345 344 345 344 344 343 342 341 339 339 339 339 338 338 338 339 339 339 338 337 337 337 338 338 338 339 339 340 340 340 341 342 341 340 339 340 340 341 341 340 340 340 341 341 341 340
354 357 356 356 358 357 359 361 364 361 356 349 350 356 351 350 349 348 350 350 352 351 351 350 352 353 354 354 354 355 355 354 352 350 352 351 350 350 350 347 347 348 347 347 347 346 345 345 345 346 345 345 345 345 345 344 343 342 341 340 339 340 340 339 338 338 339 339 339 339 337 338 338 338 338 338 339 339 339 340 340 341 342 341 339 338 339 341 342 341 341 340 340 340 340 340 340
355 357 356 356 357 356 357 356 359 356 354 353 353 354 349 347 348 348 349 352 352 351 352 352 354 354 355 355 354 354 354 355 354 351 351 352 351 351 350 347 347 348 348 347 347 346 344 344 345 345 345 345 346 346 346 345 344 343 342 341 341 340 340 339 339 339 339 339 339 340 339 339 338 339 338 338 339 339 339 340 340 341 341 340 338 338 340 342 341 341 340 341 341 340 339 338 338
357 359 358 358 357 357 359 355 354 352 350 351 351 350 349 347 348 349 350 351 351 351 352 354 354 354 355 355 354 354 354 354 354 352 351 351 352 351 349 348 348 348 347 346 346 345 343 344 345 346 346 346 346 346 346 346 345 344 343 342 341 341 340 340 340 340 339 339 339 340 340 339 339 339 338 338 339 339 339 339 340 341 340 339 338 338 341 342 340 340 341 341 340 339 337 336 336
359 360 358 360 360 359 359 354 352 351 348 348 348 348 348 348 350 348 349 351 351 350 352 354 354 356 355 355 354 354 355 353 353 352 351 351 351 351 349 348 347 347 347 346 345 344 344 345 345 346 346 346 346 346 346 346 346 344 343 342 342 341 341 341 341 341 340 339 340 341 340 339 340 338 337 338 338 339 339 338 339 340 339 337 338 340 341 340 340 340 340 340 339 338 336 335 336
360 360 357 358 359 356 354 351 350 346 345 348 347 348 348 348 349 348 348 350 351 351 351 353 354 356 355 355 355 355 354 352 352 353 353 352 351 350 349 348 346 346 346 345 345 345 345 345 346 346 346 346 347 347 347 346 345 344 344 343 342 341 341 341 341 341 340 340 341 341 340 340 339 337 337 337 338 338 338 338 338 339 336 335 338 340 340 340 339 340 340 339 339 338 336 335 334
360 359 356 357 357 351 348 346 344 341 344 346 345 347 348 347 348 348 349 350 351 351 351 354 355 356 355 355 355 356 354 353 353 354 354 353 351 349 349 348 345 344 344 344 344 345 345 345 346 345 345 345 346 347 346 345 345 344 344 344 342 342 341 341 341 340 340 340 341 340 340 339 338 337 336 337 337 338 338 337 337 338 335 334 338 340 340 340 340 341 339 339 338 338 337 334 332
357 357 355 356 353 346 343 341 338 342 343 344 345 348 348 348 348 347 349 351 351 351 352 354 355 355 355 355 355 355 355 354 354 354 354 353 351 350 350 349 346 344 344 344 344 345 346 345 345 345 344 344 343 344 344 344 345 345 345 344 343 342 342 342 341 341 341 341 341 340 339 338 338 336 335 337 338 338 339 338 338 337 334 336 339 339 339 340 340 341 339 339 338 338 337 334 332
357 355 354 353 349 345 343 338 336 342 344 344 345 347 348 348 347 347 349 352 352 351 352 353 354 354 354 355 354 354 355 355 355 354 353 352 351 349 350 350 347 344 343 343 344 345 345 346 346 345 344 343 343 342 342 343 344 345 344 344 343 343 343 342 342 341 341 341 340 339 338 338 337 336 336 338 338 339 339 338 339 337 335 337 339 338 338 339 340 340 339 338 338 338 337 334 334
353 351 351 350 347 347 344 338 339 342 342 342 344 346 347 347 348 347 348 350 351 351 352 352 353 353 353 354 354 355 356 355 355 355 353 352 351 350 350 349 347 345 343 342 343 343 343 345 346 345 343 343 342 341 341 342 342 343 342 342 343 343 342 342 342 341 341 341 340 339 338 338 337 337 338 339 339 340 339 339 338 334 335 338 337 337 337 338 338 339 339 338 338 338 337 336 336
350 348 349 350 348 346 342 340 339 338 336 338 343 344 346 346 347 346 347 348 349 352 352 352 352 353 354 354 354 355 355 355 355 355 354 353 353 354 351 348 346 344 342 342 342 343 343 344 344 343 342 342 342 341 341 341 341 342 342 342 342 342 342 342 341 341 342 341 341 340 339 338 338 338 338 339 340 340 339 339 336 334 335 337 336 337 337 337 337 338 338 338 338 337 338 336 336
347 345 349 350 348 345 342 342 341 336 336 341 342 344 345 345 345 345 347 348 349 352 351 352 351 353 354 354 355 355 355 354 355 354 354 354 354 355 352 348 346 345 343 342 342 342 343 344 343 342 341 342 342 342 341 341 342 342 343 343 342 342 342 341 342 342 341 340 339 339 338 338 338 339 340 340 340 340 339 336 334 335 336 335 336 337 337 337 337 336 337 338 338 337 337 338 338
345 348 360 353 344 346 345 343 343 338 337 340 340 342 344 344 346 345 347 347 349 351 352 352 349 351 353 354 354 354 354 354 354 354 354 354 354 355 353 348 346 346 345 344 343 343 344 343 343 342 342 342 342 342 342 342 342 343 343 342 342 342 341 341 341 340 339 339 339 339 339 339 339 340 340 339 339 337 335 333 334 335 335 335 336 338 337 338 338 337 337 338 336 337 339 340 342
343 356 369 350 343 351 347 342 345 342 336 338 338 340 342 343 346 345 346 346 349 351 351 351 348 349 352 354 354 354 354 354 354 353 354 354 354 355 354 351 347 347 346 345 344 343 343 343 342 342 342 342 342 343 342 343 343 343 342 341 341 341 340 340 340 340 339 340 339 339 339 339 340 339 338 340 339 337 336 336 335 335 335 336 336 338 338 339 340 339 338 338 338 339 342 343 345
345 360 363 346 346 351 344 343 346 343 338 338 338 341 340 342 343 345 345 345 347 349 348 349 349 351 353 354 354 354 354 354 354 353 354 354 354 354 354 354 349 347 346 345 344 344 344 343 343 343 343 343 343 343 343 342 342 342 341 340 340 340 340 341 341 340 340 340 340 339 340 340 342 341 340 342 341 340 340 337 335 337 339 339 338 339 341 343 343 343 342 341 342 343 344 345 345
347 357 357 347 347 345 342 345 345 343 342 338 339 341 339 339 340 342 342 343 345 345 347 349 351 352 353 353 353 354 354 354 354 353 354 353 353 354 355 355 352 347 346 345 345 345 345 343 343 343 343 343 343 343 342 342 341 341 340 340 340 340 340 341 340 341 340 340 339 338 340 343 344 344 343 345 342 339 339 337 338 342 344 343 341 341 343 344 345 345 345 344 346 347 347 347 346
344 352 355 352 346 344 343 344 344 344 342 340 340 339 338 337 338 340 340 343 344 344 348 352 354 354 353 353 353 354 354 354 354 354 354 353 354 354 354 356 353 348 345 345 345 345 345 343 343 344 343 343 344 343 341 340 340 340 340 339 340 340 340 341 340 341 339 339 338 337 341 344 344 344 343 344 339 336 340 341 342 344 346 345 344 344 344 345 345 346 347 346 347 348 348 348 347
343 346 351 351 344 343 343 342 343 343 342 342 339 338 338 336 338 340 340 344 343 345 350 352 354 353 353 353 353 354 353 353 354 354 354 354 354 354 353 353 351 349 347 346 345 345 345 343 344 344 343 344 344 343 341 340 340 340 339 339 339 339 339 340 340 340 341 340 338 338 342 344 343 342 339 338 338 341 344 344 345 347 347 346 345 346 345 344 345 346 346 346 347 347 348 347 347
342 342 344 344 342 343 342 342 343 343 343 342 340 338 338 336 337 337 340 343 343 346 351 351 352 353 353 352 353 353 353 353 354 354 354 354 353 353 352 351 349 349 349 348 345 346 345 343 344 344 343 344 345 344 341 339 339 340 339 340 340 340 339 339 341 341 342 342 340 342 344 343 342 342 341 341 344 347 346 345 347 348 348 347 346 346 345 343 344 346 346 347 348 347 347 347 348
340 341 341 340 341 341 340 341 342 343 343 343 341 338 338 336 336 336 338 341 343 347 350 351 352 353 352 353 353 353 353 353 353 354 354 354 353 352 351 349 348 347 347 346 345 345 344 344 345 344 344 346 346 345 343 338 338 341 340 341 341 341 340 341 343 343 342 343 342 343 345 343 341 343 346 347 347 347 346 347 348 348 348 347 346 346 345 344 343 345 346 347 348 347 349 348 348
338 338 340 340 340 339 340 340 341 342 342 344 343 340 339 336 336 339 339 341 345 349 351 352 352 352 353 352 353 353 353 354 353 354 354 354 353 351 350 349 347 345 345 344 344 344 344 345 345 345 346 346 347 347 345 340 340 344 343 343 344 343 343 342 344 344 343 343 343 344 346 346 346 346 347 348 347 347 347 347 347 347 347 346 346 346 345 344 345 345 345 346 347 348 349 348 348
336 336 337 340 339 339 340 340 340 341 341 343 344 342 341 337 338 339 339 345 349 351 352 353 352 353 352 352 353 353 354 354 354 354 353 354 353 352 352 352 350 347 346 345 345 345 345 345 345 345 345 345 347 347 347 343 341 345 345 346 346 344 345 344 344 345 344 344 343 343 345 349 348 348 347 348 348 348 348 347 346 346 345 346 346 346 346 346 346 345 344 346 347 347 347 348 346
335 335 335 336 338 339 340 340 339 339 340 342 343 341 339 339 339 339 341 346 349 351 352 353 353 352 352 352 353 353 354 354 353 353 353 353 353 352 353 353 351 348 347 346 347 346 346 346 346 346 344 345 346 346 348 346 343 346 346 347 346 346 347 347 347 348 347 346 344 341 344 350 349 348 348 348 349 349 349 348 347 346 344 345 345 345 346 346 346 346 346 346 347 346 346 346 343
335 334 334 333 335 337 338 339 340 338 340 341 343 340 339 340 339 338 342 346 347 351 352 353 353 352 352 353 353 353 353 353 352 352 352 350 352 352 353 353 351 349 349 347 345 345 346 345 345 345 344 345 346 347 348 346 346 347 348 348 348 348 348 349 350 350 350 349 347 343 344 351 351 350 350 349 349 349 349 349 347 345 344 345 346 346 346 346 346 346 346 346 346 345 343 342 340
335 334 333 333 334 334 338 339 338 337 339 341 341 341 341 340 340 338 342 345 346 350 351 351 352 352 351 352 353 353 353 353 351 351 351 349 351 352 352 353 351 351 350 348 345 344 345 344 345 345 346 346 346 348 348 347 348 349 351 350 349 349 350 351 352 351 351 351 351 348 346 349 349 348 349 349 349 349 349 349 346 344 344 345 346 346 346 347 347 345 346 348 346 343 342 341 339
333 333 331 331 332 333 336 337 337 336 338 341 341 342 341 340 339 338 341 343 345 348 349 350 351 352 351 351 353 352 352 352 350 350 350 350 350 351 351 352 352 352 352 351 348 346 345 346 346 346 347 347 347 347 348 349 350 350 351 351 349 349 350 351 352 352 351 351 352 351 349 348 346 344 344 345 347 347 347 346 345 345 345 346 347 346 346 346 346 346 347 347 344 341 341 340 338
332 332 332 331 331 332 334 335 336 336 337 340 342 339 341 341 339 337 338 342 344 347 347 348 349 350 350 352 352 352 350 350 350 350 350 349 350 351 352 353 353 353 353 353 352 349 346 347 347 347 347 346 346 346 349 350 350 351 351 352 352 351 349 350 353 353 352 352 352 352 351 350 349 346 343 342 344 345 344 345 345 345 346 346 347 346 346 347 346 347 348 346 344 342 341 338 337
331 331 331 331 327 329 334 335 337 336 337 338 340 338 340 343 341 338 337 341 344 344 346 347 348 349 349 350 351 350 349 350 350 350 350 349 349 352 352 352 352 353 354 354 354 352 349 348 348 347 345 346 346 346 348 350 352 352 352 353 353 352 351 350 352 353 353 353 353 352 351 351 350 348 345 343 344 346 345 345 344 345 346 346 346 346 345 346 346 347 347 345 343 341 340 338 339
329 327 326 330 327 328 333 333 335 336 336 337 340 339 341 343 341 338 338 340 342 343 345 346 346 347 347 348 351 349 348 349 349 349 350 348 348 351 351 352 352 353 354 354 354 354 352 351 351 348 345 346 345 345 348 349 351 352 351 352 353 353 353 351 351 352 353 352 353 352 350 350 350 348 346 345 345 346 345 344 344 345 346 346 347 347 346 347 347 346 344 344 342 335 336 340 341
329 326 323 326 326 326 331 334 337 337 338 337 339 341 343 345 344 339 339 339 340 341 341 343 345 346 345 347 349 348 347 347 347 348 348 348 348 349 350 351 352 352 353 354 355 355 354 354 354 351 347 344 345 345 348 349 350 351 351 351 352 352 352 351 350 351 353 352 352 351 350 351 350 349 348 346 345 346 345 344 345 347 346 347 348 347 346 346 346 345 342 343 339 330 332 339 340
325 327 325 326 327 327 327 334 338 336 339 339 339 343 343 344 344 340 340 340 339 339 339 341 343 344 344 346 347 348 347 347 347 347 346 348 347 348 350 351 351 352 352 352 353 354 355 354 354 353 349 344 343 346 349 350 349 351 353 352 351 351 350 350 349 350 352 352 352 351 351 352 350 350 349 347 346 345 345 344 346 349 348 348 347 345 344 344 345 344 343 343 338 331 331 335 337
322 324 324 324 327 327 327 333 337 337 339 340 340 341 342 343 343 342 342 340 340 339 339 340 341 343 343 344 346 346 347 346 346 346 346 346 348 348 349 350 350 351 352 351 351 352 354 354 353 353 352 347 344 346 349 351 350 351 353 353 352 350 349 350 348 349 352 353 353 351 351 351 350 351 351 349 347 345 345 345 347 349 347 348 345 341 341 343 343 343 344 341 336 333 334 335 336
325 326 325 324 325 327 330 334 337 337 338 339 339 340 341 342 342 342 341 341 341 339 340 339 340 342 341 344 345 346 347 347 345 346 347 346 347 348 348 350 350 351 351 351 351 350 352 354 353 353 353 351 348 347 347 349 349 349 350 352 352 350 349 349 349 350 351 352 353 352 351 351 351 350 350 350 348 347 346 345 348 348 347 347 344 338 338 341 343 344 344 338 332 335 337 338 335
329 328 327 326 326 326 331 336 337 338 337 338 342 341 341 343 342 343 343 342 342 341 340 340 340 342 341 342 345 346 347 347 347 346 347 347 348 349 348 349 351 351 351 352 352 350 351 354 353 353 353 352 351 349 346 345 344 344 345 347 347 346 346 346 348 349 351 352 353 353 352 352 352 351 351 350 349 348 346 347 348 347 346 345 341 338 336 338 341 342 341 335 331 335 337 337 331
329 328 327 327 327 327 333 337 337 338 337 338 343 342 342 344 344 343 342 343 343 342 342 341 341 341 341 341 344 347 347 348 348 347 348 348 349 350 349 350 350 351 351 351 352 351 350 353 353 353 353 353 352 350 346 342 340 339 339 342 342 341 342 343 345 347 350 353 353 353 353 353 353 352 351 350 349 348 347 349 348 346 346 343 339 336 333 334 333 330 330 329 329 332 334 333 329
328 328 326 324 327 329 333 337 338 337 338 339 341 342 342 344 343 343 344 344 343 343 344 343 341 342 342 341 343 345 347 348 348 348 349 349 349 350 350 351 350 351 351 351 352 352 351 352 353 353 352 353 353 350 346 342 338 337 337 338 338 339 338 340 344 345 348 352 353 353 353 353 354 353 352 350 349 348 349 350 347 346 344 340 337 334 334 335 329 324 326 326 328 333 335 334 329
327 327 324 323 327 327 326 334 338 337 338 339 341 341 342 345 344 345 343 343 344 344 344 344 343 343 342 343 342 344 347 348 348 348 349 349 349 350 350 350 350 350 351 351 351 353 352 351 352 353 352 352 354 350 346 342 338 337 337 336 336 337 338 342 346 347 349 351 352 352 352 352 353 353 352 351 350 350 350 349 346 345 342 338 337 334 335 335 329 329 331 330 332 335 335 337 336
326 327 325 324 327 328 327 333 337 337 337 339 341 336 338 344 345 346 344 344 345 345 344 345 345 344 342 343 343 343 345 347 348 349 348 349 349 350 350 350 350 351 351 351 351 352 353 352 351 352 351 351 353 351 345 341 341 339 339 340 340 343 348 351 351 350 351 352 352 351 350 350 351 352 351 351 351 350 349 348 345 343 339 336 335 334 337 332 325 331 335 334 336 336 335 337 337
323 327 328 327 329 330 330 332 333 331 331 338 337 330 333 343 345 347 345 345 346 344 345 344 345 346 344 344 343 343 344 345 347 348 348 348 349 349 350 350 350 350 351 351 351 352 352 353 352 351 351 351 352 351 346 340 340 340 340 342 343 346 352 354 351 350 350 351 351 350 351 350 351 352 351 351 351 349 347 346 344 341 337 335 335 336 335 328 323 332 337 332 329 333 337 338 337
319 325 329 329 329 330 330 330 328 327 329 338 338 334 333 338 341 346 346 345 347 344 345 345 344 347 345 346 344 344 344 345 346 349 349 349 349 350 350 350 349 349 350 350 350 351 352 352 353 352 351 351 350 349 346 340 337 338 339 341 341 344 349 350 347 347 348 350 351 351 351 350 352 352 350 351 351 348 346 344 341 340 337 336 337 334 328 327 330 336 336 328 323 331 337 337 337
319 326 330 329 330 330 329 328 327 330 334 337 336 338 335 333 338 345 345 345 347 345 346 345 344 347 347 346 346 345 345 345 346 347 350 350 349 349 349 350 350 349 349 350 350 350 350 351 352 352 351 350 350 348 345 340 336 335 337 338 341 343 345 346 345 346 348 351 352 352 350 351 352 351 350 351 349 346 345 342 340 339 338 338 337 334 328 329 336 338 334 325 319 328 335 335 334
322 328 329 330 331 331 331 328 326 330 330 328 332 334 332 332 341 347 345 344 346 346 346 346 347 347 347 346 347 347 347 346 346 346 348 350 349 349 349 350 351 349 349 349 350 350 350 350 351 352 351 351 350 348 345 340 335 334 336 337 339 342 344 344 344 346 349 352 353 352 351 351 350 349 349 349 346 344 343 340 339 338 338 339 338 338 332 328 334 337 335 328 320 322 330 332 331
326 328 329 330 330 331 332 329 326 327 326 325 330 330 329 331 339 345 343 340 343 347 347 347 347 346 347 347 347 347 348 347 347 347 347 349 349 349 349 349 350 350 350 349 350 350 350 351 352 352 352 351 350 349 346 341 336 335 336 337 339 340 343 345 344 346 349 353 353 352 351 349 348 348 348 348 345 342 342 339 338 337 337 339 340 338 329 324 332 335 335 333 325 319 322 328 333
326 327 328 327 328 330 333 332 329 323 322 327 330 329 329 330 334 340 342 341 343 347 347 347 346 346 347 347 347 348 348 348 348 348 347 347 349 350 350 350 350 350 351 350 350 351 351 352 352 353 353 352 350 348 346 343 338 336 336 338 339 340 342 345 345 346 349 351 351 351 350 348 348 348 347 346 343 341 340 339 338 338 339 340 341 336 325 324 332 334 331 327 323 322 321 325 332
327 326 326 323 323 326 326 326 328 322 321 327 330 329 326 325 332 341 343 345 345 345 347 347 346 346 346 346 347 347 348 348 349 348 348 348 348 351 350 350 351 351 351 351 351 352 352 353 353 353 354 354 352 350 347 344 340 338 337 338 339 341 342 344 345 345 347 349 348 349 350 348 349 349 346 344 342 340 340 339 339 340 340 341 339 331 323 326 331 332 329 323 320 326 324 323 327
326 324 322 318 318 320 320 320 323 322 322 326 329 328 323 325 338 344 344 344 344 343 345 345 345 345 345 346 346 346 348 348 349 348 348 348 349 351 351 351 350 351 352 352 352 353 353 353 353 354 355 356 354 352 349 345 343 340 339 339 340 342 342 343 345 345 346 347 347 348 349 349 348 348 347 344 342 341 340 340 340 341 341 341 337 326 320 324 328 329 332 328 322 324 323 322 324
323 321 319 318 318 318 319 320 321 322 324 326 327 327 322 323 337 343 343 342 342 342 342 343 344 344 344 346 346 346 347 348 348 348 349 350 350 351 351 350 351 352 352 353 353 353 354 354 355 355 356 357 356 354 351 348 344 341 339 340 340 343 342 343 344 345 345 345 346 348 347 346 344 343 344 342 340 341 341 341 340 341 341 341 339 331 321 322 326 328 333 330 324 321 321 321 323
324 324 323 320 318 318 319 320 320 321 325 325 325 325 321 323 336 345 343 340 341 341 342 342 343 344 344 346 346 346 346 346 347 348 349 350 351 351 352 352 352 352 352 353 353 354 354 355 356 357 357 358 357 356 354 350 346 343 341 340 341 342 341 341 344 344 344 344 345 347 345 343 341 340 340 338 338 340 341 342 341 341 341 340 341 336 323 320 326 329 331 329 323 321 320 320 321
324 326 322 318 321 322 321 322 322 321 323 323 322 324 328 333 342 345 340 339 341 341 340 340 341 344 345 346 346 346 346 347 347 348 349 350 351 352 353 352 353 353 353 353 353 353 354 355 356 357 357 358 358 358 355 352 348 344 342 340 340 341 340 341 343 344 344 344 344 345 344 343 341 340 339 338 338 340 342 342 342 340 339 337 339 336 323 317 322 325 328 327 322 320 320 319 319
323 322 318 320 326 326 320 320 322 321 321 322 321 324 330 333 337 339 337 341 343 341 341 342 341 344 346 346 346 345 345 347 348 349 350 350 350 351 352 353 353 353 353 353 354 354 354 354 355 357 358 358 358 358 357 354 351 347 343 341 340 340 340 340 343 343 343 344 345 345 344 342 341 341 340 339 340 342 343 344 342 341 340 337 334 330 322 317 318 320 324 324 322 320 319 319 320
323 319 320 325 327 325 321 318 319 320 320 321 320 322 326 327 330 336 337 341 345 342 343 344 343 343 344 345 347 346 347 347 348 350 350 350 350 351 353 353 353 354 353 353 353 354 354 355 355 356 357 358 358 358 358 355 353 350 344 341 340 339 340 341 342 342 342 343 345 346 346 344 342 341 340 341 341 343 344 344 343 341 341 339 333 325 318 317 318 318 321 322 322 321 320 320 320
325 322 325 325 320 318 319 318 318 319 319 319 320 323 324 326 330 335 335 340 345 344 342 344 344 343 343 345 347 347 348 348 348 348 349 350 350 352 352 352 352 353 352 352 353 354 355 355 355 356 356 357 357 357 358 356 354 351 347 343 340 339 340 341 342 342 341 342 343 344 346 345 344 341 340 341 342 343 343 342 341 340 340 339 333 324 319 318 318 318 320 321 321 321 320 319 320
327 325 327 325 320 319 319 318 318 320 319 319 321 322 324 332 341 339 336 338 342 344 343 343 343 342 341 344 347 348 348 348 348 349 348 349 350 351 352 352 352 353 353 354 354 354 355 355 355 356 356 357 358 358 358 358 356 353 350 346 342 340 340 341 342 341 342 342 341 342 344 345 345 343 341 340 341 342 342 341 340 339 339 337 332 325 320 318 318 318 319 319 320 320 320 319 319
323 322 322 321 322 322 321 319 318 320 320 319 321 321 324 338 348 343 344 342 337 341 344 343 343 341 341 343 345 348 348 349 349 348 349 348 349 349 351 351 352 352 353 353 354 354 355 355 355 356 357 358 359 359 359 358 357 354 351 348 344 340 340 341 342 342 342 342 342 342 343 344 345 344 342 340 340 341 341 341 340 340 339 337 333 327 321 318 319 319 319 320 320 319 320 320 320
325 322 321 320 321 319 318 319 319 318 317 318 321 322 327 341 343 340 347 350 340 340 343 343 341 340 341 343 345 346 347 347 347 348 347 347 348 349 350 352 352 353 354 353 355 356 355 355 356 355 356 358 358 358 358 358 357 355 352 349 345 341 340 341 342 344 344 343 343 343 344 345 345 344 342 340 339 341 342 341 341 340 339 338 335 330 323 318 318 319 321 323 322 320 320 320 319
Wind_Speed
8 5 6 5 7 5 1 2 1 1 1 2 0 2 1 2 4 5 3 5 4 6 18 18 17 15 11 12 15 16 14 5 2 3 6 14 22 20 19 19 20 23 25 26 25 25 24 24 24 24 25 24 24 25 26 26 27 27 27 27 26 26 25 25 24 23 21 20 19 18 17 17 16 16 16 16 16 15 15 14 14 13 13 13 13 13 14 13 13 12 12 12 12 12 12 12 12
9 10 10 6 6 5 1 1 1 0 0 2 0 1 2 3 4 7 5 6 9 14 24 25 24 22 19 19 18 17 16 11 13 18 20 24 24 20 20 20 21 24 26 27 26 26 25 24 24 23 24 24 23 24 24 26 26 27 27 26 26 25 24 23 22 21 20 19 18 17 16 15 15 15 15 15 15 14 14 13 13 12 12 13 13 13 13 13 12 12 11 11 11 11 11 11 12
12 13 13 8 5 4 2 1 1 2 1 1 1 2 4 3 5 6 9 12 17 21 22 21 21 20 20 17 14 13 9 13 27 32 28 26 25 23 21 20 22 24 26 27 27 26 26 25 23 23 23 23 23 24 24 25 26 26 25 26 25 24 23 22 21 20 18 17 17 16 15 14 14 14 14 14 13 13 13 12 12 12 12 12 12 12 12 12 11 11 11 10 11 11 11 11 11
13 11 10 10 6 2 2 0 1 1 1 2 1 3 4 6 7 10 13 15 19 19 19 19 17 17 19 16 13 14 12 15 27 31 27 26 26 26 23 21 23 24 27 27 27 26 25 25 24 24 23 23 24 24 25 25 25 25 25 25 24 23 22 20 19 18 17 16 15 14 14 13 13 13 13 13 12 12 11 11 11 11 11 11 11 11 11 11 11 10 10 10 10 11 11 11 11
13 11 8 9 5 1 1 1 1 1 2 2 1 3 4 8 12 12 14 16 17 17 18 17 14 16 20 15 11 11 15 18 21 26 28 26 25 26 23 22 24 25 27 27 27 25 25 25 25 24 23 23 23 24 24 24 24 24 24 23 23 21 20 19 18 17 16 15 13 13 13 12 12 12 12 12 11 11 10 11 10 10 10 10 10 10 10 10 10 10 10 10 10 10 11 11 11
15 12 9 9 5 1 2 1 0 3 5 3 1 1 5 11 12 13 17 18 17 18 20 20 17 18 18 17 17 15 18 20 19 24 29 28 26 25 24 23 25 26 27 28 26 25 25 24 24 23 23 23 23 23 24 23 23 23 23 22 21 20 19 18 17 16 15 13 12 12 12 12 11 11 11 11 11 10 10 9 9 9 9 9 9 9 10 10 10 10 10 10 10 11 11 11 11
17 11 8 7 6 2 2 2 3 5 6 4 4 3 7 11 14 17 17 17 17 18 22 23 22 17 13 14 17 16 16 18 23 26 28 29 27 24 24 25 25 27 28 28 27 26 25 24 24 23 23 23 23 23 23 23 22 22 22 21 21 20 18 17 16 15 14 12 12 11 11 11 11 10 10 10 10 9 8 8 8 8 8 8 8 9 9 9 9 9 9 10 10 11 12 12 12
15 8 7 5 2 2 2 3 6 5 5 6 6 6 9 13 13 13 14 15 13 15 21 24 25 18 10 14 14 15 15 18 26 27 27 28 27 25 25 25 26 28 29 29 28 27 26 24 24 23 23 23 23 23 22 22 21 21 21 21 20 19 18 16 15 14 13 12 11 11 11 10 10 10 9 9 9 8 7 7 7 7 7 7 8 8 9 9 9 9 9 10 11 11 12 13 12
12 8 5 3 2 3 3 5 7 3 8 8 8 8 13 19 11 11 14 14 13 17 21 20 23 19 12 18 18 19 20 21 27 27 27 27 27 27 26 26 27 29 30 29 29 28 27 25 24 23 22 22 22 22 21 21 21 21 20 20 19 18 17 16 15 13 13 12 11 11 10 10 9 9 9 8 8 7 6 6 6 6 6 7 7 8 8 9 9 9 10 11 11 11 12 12 12
11 10 4 2 2 3 4 6 5 4 9 8 8 10 13 17 16 13 17 15 16 19 21 22 24 23 18 19 18 21 25 27 30 28 26 26 27 28 27 26 27 30 30 30 29 28 27 25 25 23 22 21 22 21 21 22 21 21 20 19 18 17 16 15 15 13 13 12 12 11 10 10 9 9 8 7 6 6 6 5 5 5 6 6 7 7 8 8 9 9 10 11 11 11 12 11 11
7 8 6 2 2 3 5 6 3 6 8 8 8 13 10 15 16 14 18 17 19 22 23 24 22 25 22 18 18 23 27 28 29 28 25 25 27 27 28 26 26 29 30 30 29 28 27 25 24 23 22 21 21 21 21 21 20 20 19 18 18 17 16 16 15 14 13 12 12 11 10 9 8 8 7 6 6 5 5 5 4 4 5 6 7 7 8 8 9 9 9 10 10 10 11 11 10
5 3 4 1 3 3 6 6 5 7 8 8 7 12 11 14 16 13 17 17 22 22 20 19 19 24 17 13 20 26 27 26 27 27 25 26 27 27 27 26 26 28 28 29 28 27 27 25 23 22 22 21 21 21 21 21 20 19 18 18 18 17 17 16 15 14 13 12 11 10 9 9 8 7 6 6 5 5 4 4 4 4 5 7 7 8 8 8 9 9 9 9 9 9 9 10 10
8 3 2 3 4 3 8 7 4 8 5 5 7 12 12 11 12 14 17 19 21 17 18 22 24 23 15 13 22 27 26 26 27 25 26 26 25 25 25 25 26 28 28 28 27 27 27 25 24 22 22 22 21 21 21 20 20 19 18 18 18 17 16 15 15 13 13 12 11 10 9 8 7 6 6 5 5 4 4 3 3 4 5 6 7 7 8 8 8 8 8 8 8 8 8 9 9
11 8 3 3 4 5 7 6 2 6 4 4 9 13 14 11 12 17 19 16 16 19 23 27 28 23 17 16 19 27 27 27 29 25 26 26 25 23 22 25 26 27 27 27 27 26 26 25 24 23 23 22 22 21 20 20 20 19 19 18 17 16 15 15 14 13 12 11 10 9 8 8 7 7 6 5 5 4 3 3 4 4 5 6 6 7 8 8 8 8 8 7 7 7 8 8 9
14 11 2 2 4 5 5 6 5 2 5 5 9 13 15 14 15 18 18 14 16 26 26 26 28 20 17 18 18 29 29 29 31 28 28 27 27 25 22 25 26 26 26 26 26 26 26 25 24 23 24 23 22 22 21 20 19 19 18 17 16 15 14 14 13 12 11 10 9 9 9 9 8 7 6 5 4 3 3 3 4 4 5 6 7 7 8 8 9 8 8 7 7 7 7 7 9
16 9 2 2 4 3 4 6 7 1 4 4 8 13 12 13 15 15 18 19 22 28 25 24 22 18 24 24 26 34 32 31 31 29 30 27 28 27 24 24 25 26 25 25 26 26 26 25 24 24 24 23 22 21 20 20 18 17 17 16 15 14 13 13 12 11 10 10 9 9 9 9 8 7 6 5 4 3 4 4 4 4 5 6 7 8 8 9 9 9 8 8 7 7 6 7 8
14 5 3 1 3 1 2 4 5 1 5 6 8 12 9 10 15 17 20 22 26 25 23 24 20 25 32 28 33 37 34 34 31 30 32 29 30 29 25 24 26 26 25 26 26 26 26 25 24 24 23 22 21 20 19 18 17 16 16 15 14 14 13 12 11 11 10 10 10 9 8 8 7 6 5 5 4 4 5 5 4 5 6 6 7 7 8 8 8 9 9 9 8 8 7 7 7
10 3 0 2 3 3 4 3 7 4 4 5 10 14 10 9 14 19 20 20 25 20 19 25 23 27 31 31 37 37 35 36 33 35 35 34 33 30 28 26 26 27 27 27 26 25 24 24 24 23 23 21 20 19 18 17 16 16 15 15 14 13 13 12 11 11 11 11 10 9 8 7 7 5 5 5 4 5 4 4 5 5 6 6 6 6 6 6 7 8 9 9 9 8 7 6 5
8 4 1 3 4 6 9 11 9 7 2 4 12 18 13 10 14 17 14 16 21 15 17 28 28 30 32 35 38 36 37 36 35 38 38 37 35 33 32 29 27 28 29 27 26 24 23 24 23 22 22 21 20 19 18 17 16 16 15 14 13 13 12 12 12 12 11 11 10 9 8 7 6 5 5 5 4 4 3 3 4 5 5 6 5 4 4 5 6 7 8 8 8 7 6 5 5
10 7 2 4 7 6 11 14 10 6 10 6 7 17 16 13 16 15 12 15 16 12 18 26 28 34 36 37 37 37 37 35 35 37 38 37 34 34 33 31 29 29 30 27 26 25 23 24 22 22 21 21 20 19 18 17 16 15 14 14 13 13 13 13 13 13 12 11 10 9 8 7 6 5 4 4 3 3 3 3 3 3 4 5 4 4 4 4 4 5 5 5 6 5 4 4 6
9 8 4 7 10 8 20 12 19 12 12 4 6 12 15 15 16 15 16 14 10 14 27 31 32 37 38 38 38 37 36 36 35 34 36 36 33 32 31 31 30 30 29 27 27 26 24 24 22 22 21 21 20 19 18 18 17 16 15 14 14 14 14 14 13 12 12 11 10 9 8 7 6 6 5 4 3 2 1 2 2 2 3 4 3 3 3 4 4 3 3 3 3 3 3 4 4
9 10 13 14 14 8 12 7 22 19 7 1 5 7 13 16 13 17 22 12 9 22 35 38 38 39 40 40 38 37 37 36 35 32 33 34 33 31 29 30 30 30 29 28 28 26 25 24 23 22 22 21 19 18 18 18 17 16 16 15 14 14 13 13 13 12 11 11 10 9 8 7 6 6 5 3 2 2 1 0 1 2 3 4 3 3 3 4 4 3 4 3 4 3 3 4 3
8 10 17 21 18 7 3 10 14 23 14 7 5 9 15 14 8 16 22 14 20 34 39 40 39 40 40 40 38 37 37 36 36 33 31 32 32 32 30 30 31 30 29 28 28 26 26 24 23 23 22 22 20 18 18 17 17 16 15 15 14 14 14 13 12 12 10 10 10 9 9 7 5 5 4 3 3 3 2 2 3 3 4 4 4 4 5 4 4 3 4 3 4 4 3 4 4
11 6 13 21 19 12 11 14 8 20 19 12 8 8 11 11 5 7 14 18 32 39 38 39 39 39 38 38 38 37 36 36 35 33 31 30 30 31 30 30 30 30 29 28 28 27 27 25 25 24 23 22 21 19 17 17 16 16 15 15 14 13 13 13 12 11 10 10 9 9 9 7 4 4 4 4 5 4 4 5 5 5 5 5 4 5 5 4 3 3 4 3 4 4 4 5 4
13 10 13 18 20 20 20 17 11 15 19 19 13 8 9 13 9 10 21 31 38 39 38 39 39 38 37 37 37 37 36 35 33 32 31 29 27 28 29 29 30 30 29 29 28 28 27 26 25 24 24 23 21 19 18 17 17 16 15 15 15 14 13 12 11 11 10 10 9 10 9 7 5 6 6 8 8 7 7 5 5 6 7 6 6 6 5 4 4 4 5 4 4 5 5 5 3
11 14 15 11 15 21 23 19 15 15 18 25 16 8 11 14 11 9 25 37 38 39 38 38 38 37 36 35 36 37 36 34 33 32 31 30 28 27 28 29 29 30 30 29 29 28 27 26 25 25 24 22 21 19 18 18 18 16 15 14 14 14 13 11 11 10 10 10 10 10 9 8 9 10 10 11 11 11 9 6 6 7 8 7 6 5 4 5 5 4 4 5 4 4 3 1 3
14 15 13 8 10 16 21 20 19 18 17 26 16 7 13 17 10 5 25 39 37 39 37 36 37 36 35 33 35 37 35 35 34 32 31 31 30 29 29 29 28 29 29 29 29 28 27 26 26 25 24 23 21 20 18 18 18 17 15 14 14 13 12 11 11 9 9 9 9 9 11 13 13 12 13 13 12 12 10 8 8 9 8 6 6 5 5 6 5 5 4 4 3 3 4 4 4
21 18 13 11 12 11 17 18 17 15 14 25 18 9 13 16 8 7 29 39 37 38 36 35 34 33 33 32 34 36 35 34 33 33 32 31 32 31 31 29 27 28 28 27 28 28 27 26 26 25 24 24 22 21 20 18 18 17 16 15 14 13 13 12 11 10 10 9 9 8 11 16 15 13 13 12 11 10 9 9 9 8 6 5 5 5 5 6 6 6 4 2 4 6 6 4 4
22 17 11 11 14 10 10 11 10 8 11 29 22 10 11 9 7 17 33 36 37 37 35 34 34 33 33 31 34 35 34 33 33 33 31 32 32 31 32 30 27 28 26 24 25 28 28 27 26 26 25 25 24 22 21 19 18 18 17 15 14 14 14 14 12 12 11 9 9 9 11 15 15 13 12 11 10 9 8 9 8 6 5 4 5 5 6 6 5 5 3 2 6 6 5 3 4
17 12 7 7 9 8 5 9 11 8 11 29 20 7 8 6 9 23 31 33 37 35 32 33 32 33 34 33 34 34 32 33 34 33 31 31 30 30 32 30 29 29 27 25 25 27 28 28 28 27 26 26 25 23 22 21 19 18 17 16 15 14 15 15 13 12 11 11 11 12 12 12 13 12 11 11 10 10 9 9 8 6 5 5 6 6 6 6 4 3 1 4 6 4 3 4 3
10 8 5 5 4 5 8 7 13 10 14 26 15 4 8 6 10 25 29 32 37 32 31 32 30 32 32 32 36 35 32 32 34 32 31 31 30 30 31 30 31 30 29 28 26 26 27 28 29 28 27 26 26 24 23 22 20 20 19 19 19 16 16 17 16 14 14 15 14 14 13 11 12 12 11 11 10 10 10 8 7 6 6 6 6 6 7 5 1 2 3 5 4 1 2 3 2
5 6 4 4 3 6 12 10 12 9 11 22 14 3 7 6 10 27 29 28 34 31 31 32 30 31 31 31 36 35 32 32 33 32 32 32 31 31 31 32 32 31 32 31 28 27 27 28 28 28 27 26 26 26 24 23 22 22 20 20 20 18 18 17 18 18 18 17 16 15 13 11 11 10 10 10 10 10 9 8 7 7 6 7 6 6 5 1 3 5 4 4 1 0 5 6 4
4 5 4 5 6 7 10 6 11 7 5 13 11 3 6 4 8 26 29 26 31 30 29 31 30 33 31 31 35 35 32 31 31 32 32 33 32 31 32 33 32 31 32 33 31 29 28 29 29 28 28 27 27 27 25 24 23 22 21 20 20 20 19 18 18 20 19 17 15 14 13 12 11 9 8 8 9 10 9 8 7 7 6 7 6 4 0 4 5 5 4 3 1 1 7 7 5
5 5 5 7 8 7 6 4 9 9 8 7 8 6 6 6 9 23 29 26 27 27 27 30 30 33 32 31 34 34 33 33 33 33 33 34 33 31 31 31 30 31 31 31 31 31 29 29 30 29 27 26 27 28 26 24 23 23 21 20 20 20 19 18 17 18 17 15 14 13 13 12 11 9 8 7 7 9 10 9 7 6 5 5 2 2 5 6 5 4 4 5 4 3 5 6 5
7 7 5 7 9 8 7 5 7 10 12 8 8 8 8 10 11 18 28 26 24 26 28 30 31 34 34 31 33 34 34 35 35 34 33 34 34 32 32 31 31 31 30 29 30 30 30 29 30 29 27 25 26 28 28 26 24 24 24 22 21 20 19 18 17 17 17 16 16 15 13 11 10 10 9 7 7 9 10 9 6 5 5 3 5 6 5 5 5 5 7 9 6 3 5 3 2
12 11 8 7 7 8 10 7 10 11 10 8 9 9 9 12 11 12 24 27 23 26 28 28 29 33 34 32 34 35 34 36 36 34 33 34 35 33 33 33 32 31 29 29 29 29 32 32 30 30 28 25 24 28 31 29 27 26 25 25 23 22 19 18 17 17 18 18 17 16 14 12 10 10 9 9 8 10 10 8 7 6 5 5 7 7 5 4 5 7 9 8 3 3 5 3 1
14 13 10 9 7 8 11 8 12 13 9 8 9 10 8 11 11 11 21 25 19 21 24 25 28 32 34 32 33 36 36 36 36 34 33 34 35 34 34 34 33 31 30 31 30 29 33 33 32 31 30 27 25 28 31 32 31 28 27 27 25 23 20 19 18 17 16 16 16 16 15 13 11 10 9 9 10 11 10 8 8 7 6 7 8 6 5 4 6 8 9 6 4 6 5 4 3
14 13 11 9 8 8 10 8 14 14 9 9 11 10 8 10 12 12 17 17 14 18 20 22 27 31 34 34 33 36 36 35 35 34 34 34 35 35 34 35 34 34 34 34 33 32 33 34 34 33 32 30 28 28 29 31 31 29 28 27 25 23 21 19 19 17 16 16 17 17 16 14 12 11 9 10 11 11 10 9 8 8 7 8 8 6 5 5 6 8 8 6 7 7 4 4 4
12 10 9 9 7 7 9 6 12 13 7 7 11 10 7 8 12 13 14 12 13 22 24 24 28 30 34 35 33 35 35 34 35 36 35 33 35 36 35 36 37 37 37 36 35 34 35 36 36 35 34 33 31 29 29 29 30 28 27 26 25 24 22 20 19 17 17 19 20 18 17 15 13 11 10 12 12 10 10 9 8 9 9 8 7 6 5 4 3 4 5 6 9 8 6 6 5
10 9 8 8 9 8 7 5 8 12 9 8 11 10 6 7 10 12 16 15 14 20 25 27 30 30 34 38 36 36 36 36 37 38 38 35 35 37 37 37 38 38 38 38 37 36 37 38 38 38 37 35 33 31 29 27 27 27 26 24 23 22 21 19 17 17 17 20 20 19 17 16 13 12 12 12 12 10 10 9 9 10 9 6 7 7 5 3 3 5 5 7 11 9 7 7 5
11 13 11 8 11 12 10 8 7 9 10 11 11 7 5 7 9 9 13 16 14 16 19 21 29 33 34 37 37 37 38 39 39 40 41 39 37 39 39 39 39 40 41 40 40 40 39 39 39 39 39 37 35 33 30 27 26 26 25 23 21 20 18 17 17 17 18 20 20 18 16 14 13 13 11 11 11 10 9 9 10 10 8 6 7 7 5 4 4 6 5 6 11 10 7 9 6
10 14 16 14 13 13 13 13 8 4 6 8 10 6 5 6 11 10 10 11 12 15 16 16 24 31 33 35 37 38 39 39 41 41 42 42 40 40 40 41 41 42 43 42 42 41 40 39 39 39 39 39 37 35 32 29 27 27 27 25 24 24 23 21 20 19 19 19 18 17 15 13 12 12 11 11 12 11 10 10 11 10 7 6 6 7 6 4 4 6 6 6 11 11 9 10 9
7 10 16 19 18 16 15 15 8 3 5 8 9 6 3 5 9 12 12 12 13 15 15 17 22 29 32 34 37 39 40 39 41 41 42 43 42 42 42 43 44 44 44 44 42 41 40 40 39 39 39 40 39 38 35 31 29 29 29 29 27 27 27 26 23 19 18 19 18 17 16 14 13 12 11 12 13 12 11 12 12 10 7 6 5 5 5 4 7 8 6 5 11 13 11 12 11
7 9 14 19 20 19 18 15 9 3 4 9 11 8 4 5 7 11 14 14 14 15 15 16 20 27 33 34 35 39 41 40 41 41 42 44 44 44 45 45 46 45 45 44 44 43 42 41 40 39 39 40 40 39 37 34 32 31 31 30 29 28 27 25 22 20 18 18 19 19 17 15 14 13 13 14 14 13 13 14 13 10 8 7 5 5 5 7 11 11 7 5 10 15 14 12 11
9 10 11 14 17 18 17 13 8 5 4 6 10 10 5 4 6 9 13 14 14 15 16 14 16 25 33 33 33 37 41 42 42 42 43 44 45 45 46 46 46 45 44 45 45 44 44 42 41 40 40 40 40 39 38 36 33 32 31 31 31 29 27 24 21 21 20 19 21 20 18 16 15 15 15 16 15 14 14 15 14 11 9 9 7 5 7 10 12 11 9 6 8 14 16 14 12
9 11 10 10 12 14 14 11 7 6 5 5 10 12 6 4 6 7 9 11 12 13 15 14 17 25 32 34 35 37 42 43 43 44 43 44 45 45 46 46 45 45 45 45 44 44 44 43 42 41 40 40 40 40 39 37 35 33 32 32 32 30 28 26 23 22 23 23 23 22 19 17 16 16 16 16 16 14 15 15 13 11 11 10 7 6 9 11 10 9 9 7 7 12 15 15 14
9 10 10 10 10 8 7 7 6 6 5 5 10 15 11 5 6 8 9 10 12 11 12 14 17 24 30 34 36 38 42 43 43 43 44 44 44 44 45 46 46 46 45 45 44 44 43 43 43 42 41 41 40 40 40 38 36 35 34 33 32 31 29 28 25 25 26 26 25 24 21 18 18 17 16 17 17 15 15 14 12 12 12 10 8 9 11 10 9 8 9 9 10 11 14 16 16
9 7 7 7 6 5 4 3 5 6 6 5 8 12 11 7 6 8 10 12 14 12 12 15 17 22 29 34 36 37 40 43 43 43 44 44 43 43 45 46 47 47 46 46 45 44 44 44 43 42 41 41 41 41 41 39 38 36 35 34 32 31 29 29 28 27 27 27 26 24 22 20 20 19 18 18 18 17 15 13 12 13 14 11 9 11 11 9 9 10 9 9 10 12 14 15 15
9 6 6 6 4 4 4 4 4 5 7 6 7 9 9 6 5 11 14 14 16 15 15 20 22 25 31 34 36 37 39 42 43 43 44 45 44 44 46 47 47 48 48 48 46 45 45 45 44 44 43 42 42 42 41 40 39 37 36 35 33 31 30 30 30 28 27 26 25 26 25 24 23 22 22 21 19 18 15 14 15 16 15 12 10 11 10 9 12 13 10 9 11 12 12 13 14
10 8 6 6 5 5 6 5 4 4 5 8 11 9 6 5 4 12 18 17 18 20 22 28 31 34 36 38 39 38 38 41 42 42 43 46 47 47 48 48 49 49 49 49 47 46 46 45 45 45 44 43 42 42 42 41 40 38 36 34 33 32 31 30 30 30 28 26 26 27 27 26 24 24 23 22 20 18 16 15 17 17 16 13 11 12 11 11 13 13 11 9 11 13 12 13 13
9 8 6 6 5 5 5 4 4 4 4 7 11 8 5 4 5 11 16 18 22 26 28 31 35 40 41 40 41 40 39 39 41 43 44 46 49 49 48 49 50 50 50 50 49 47 47 46 46 46 45 44 44 43 43 42 41 40 37 35 33 33 32 31 31 31 30 28 27 27 27 26 25 23 22 21 20 20 18 17 18 18 18 16 13 13 14 14 14 13 11 10 12 14 14 14 14
6 6 6 8 7 5 3 4 4 3 4 5 6 5 4 5 7 9 10 14 20 24 27 27 27 36 40 38 40 41 40 39 40 43 45 46 49 49 49 50 50 51 50 50 50 49 49 48 47 47 45 45 44 44 44 43 42 40 39 36 34 33 33 32 32 32 31 30 28 28 27 26 24 23 21 21 21 21 20 19 19 18 18 17 14 14 16 17 16 15 13 13 13 15 15 15 15
4 7 10 8 7 5 2 3 4 3 5 5 4 5 3 3 5 10 12 8 14 18 20 18 20 30 34 34 38 40 40 40 41 43 45 46 48 49 50 50 50 50 50 50 51 51 50 49 47 47 46 45 45 45 44 43 42 42 40 38 35 34 34 33 33 33 32 31 30 29 28 26 25 24 22 22 22 23 22 21 20 19 18 18 15 15 17 18 17 16 16 15 14 15 16 15 15
4 6 7 3 3 5 2 2 3 4 5 4 6 7 4 3 3 9 13 7 12 15 14 12 17 25 27 29 36 38 40 42 43 43 44 44 47 49 50 50 50 50 50 50 50 50 50 49 48 47 46 46 46 46 45 44 43 43 42 40 37 36 35 34 34 33 32 32 31 30 29 28 26 25 23 23 23 24 23 23 22 20 20 19 16 16 19 18 18 18 18 17 16 17 17 16 15
9 5 3 4 5 6 4 3 4 5 5 4 6 8 6 5 4 9 14 10 11 16 15 13 16 21 24 30 36 39 40 42 43 44 44 44 46 49 49 50 49 49 49 49 49 50 49 48 48 47 47 47 46 46 46 45 44 44 43 42 39 37 37 35 34 34 33 33 33 32 31 30 28 26 25 25 26 26 26 25 24 23 22 22 19 19 19 18 18 20 20 19 19 20 19 16 16
10 7 6 4 4 5 7 5 3 4 3 3 6 7 5 5 5 10 14 13 12 15 15 14 15 21 27 31 35 39 41 42 44 46 47 47 48 49 49 50 49 48 48 48 48 49 49 49 48 47 46 46 46 46 46 46 45 44 44 43 41 39 38 37 36 35 35 34 33 33 32 31 30 29 28 27 28 28 28 27 27 26 25 24 23 22 21 19 18 19 21 21 21 22 21 19 17
9 9 10 8 4 3 5 6 6 5 3 3 5 5 5 5 5 8 10 11 14 15 16 15 16 25 33 35 38 41 43 45 47 47 48 49 49 49 49 49 48 48 47 47 48 49 49 49 48 47 46 46 46 47 47 46 46 45 45 44 43 41 40 38 37 36 36 35 34 34 33 32 31 31 30 30 30 30 30 29 28 28 27 26 25 24 22 21 20 20 21 21 21 22 22 21 19
10 9 10 10 6 4 4 5 6 7 6 6 5 4 6 6 5 7 8 10 12 13 13 12 15 27 33 35 42 46 47 48 49 50 50 48 47 47 47 47 47 47 47 47 48 49 50 50 49 48 47 47 47 48 48 47 46 45 45 45 44 43 41 40 39 38 37 36 35 34 34 33 33 33 33 32 32 32 32 31 30 30 29 27 26 25 24 23 23 22 22 22 22 23 24 23 22
Wind_Direction
197 177 160 145 137 177 174 51 340 123 176 289 170 113 116 132 152 158 172 155 160 124 108 115 121 114 113 101 101 81 40 27 131 116 137 150 150 148 148 150 154 152 152 152 147 146 148 145 144 144 144 142 139 139 141 140 137 136 136 135 134 133 132 132 130 128 126 124 121 119 118 117 117 115 112 108 106 106 106 103 100 95 90 83 76 74 74 71 69 67 66 66 64 62 61 62 66
168 153 145 132 145 186 315 63 286 344 262 302 302 149 130 145 174 167 154 107 88 88 93 99 105 100 100 97 95 83 44 48 110 115 126 142 145 144 146 151 154 152 152 152 149 147 148 148 146 145 145 143 140 140 143 143 140 139 139 138 137 136 135 134 132 131 128 126 123 121 119 118 117 115 112 108 107 108 107 104 101 96 89 81 74 73 72 69 66 64 63 63 62 59 58 57 61
161 153 144 140 161 202 263 221 247 355 336 288 218 156 118 185 206 127 102 90 91 93 94 96 97 97 96 83 74 90 72 79 112 120 127 141 143 143 148 151 151 152 152 150 150 148 149 149 148 147 147 145 143 144 146 145 143 142 142 141 141 139 138 136 135 133 130 128 126 124 121 120 119 116 112 110 110 109 108 103 99 94 86 78 74 74 72 68 65 62 61 60 59 56 55 54 56
155 154 147 154 161 212 248 26 134 44 297 247 225 156 152 175 150 111 110 104 98 96 95 94 91 89 88 93 89 90 96 103 117 124 133 144 141 141 146 147 147 150 151 150 149 148 149 149 150 149 147 147 146 147 147 146 145 145 144 144 144 143 142 140 139 137 134 132 129 126 122 122 120 118 114 112 112 110 107 102 98 92 85 78 73 73 70 66 63 61 59 59 59 56 56 55 53
136 155 173 177 164 74 190 337 15 153 250 252 277 192 171 124 118 119 122 113 107 106 102 97 92 85 80 91 101 94 111 116 122 128 135 143 140 139 144 145 145 148 149 150 150 149 150 148 149 150 148 148 147 149 148 146 147 148 148 147 147 147 146 145 143 141 138 136 133 128 125 123 122 120 117 115 113 110 105 101 97 91 85 77 73 73 69 63 59 57 55 58 60 60 59 57 54
140 170 195 207 226 271 189 254 226 234 246 227 237 219 99 98 114 119 117 115 109 106 102 98 98 91 77 78 92 111 128 125 129 136 136 141 140 140 144 144 144 146 148 150 151 150 149 148 148 149 148 148 147 148 148 147 149 150 150 149 151 150 150 149 147 145 143 141 137 133 129 127 125 122 119 116 113 110 105 100 96 91 84 76 72 70 67 61 56 52 50 53 58 61 60 57 55
153 180 194 214 249 235 227 230 224 240 233 196 176 161 121 125 129 125 120 116 106 105 106 105 107 97 83 89 95 111 131 134 135 140 138 138 138 140 144 144 144 145 147 149 150 149 147 146 146 147 147 147 147 148 149 149 150 151 151 151 153 153 153 152 150 148 147 145 142 137 133 131 129 126 123 118 115 110 105 102 98 91 82 74 73 68 63 58 52 48 47 50 55 60 59 57 56
159 188 191 201 279 195 224 257 252 230 190 174 159 166 135 112 113 129 128 118 114 115 110 109 107 92 88 101 99 109 125 139 136 138 138 136 138 142 146 146 144 143 146 148 148 147 145 145 145 145 145 146 147 149 151 150 151 152 153 154 156 156 156 155 153 152 150 150 146 142 139 137 135 131 126 121 117 112 108 105 100 90 79 73 72 65 59 55 47 44 44 48 54 59 58 57 59
173 203 208 206 268 256 266 274 257 184 147 149 147 154 116 107 127 145 123 114 122 118 110 112 104 95 103 101 101 113 123 139 135 135 136 137 141 144 148 147 144 143 146 148 148 147 144 145 145 145 145 146 148 150 153 153 153 153 154 156 158 160 160 159 157 156 155 154 150 147 146 143 140 134 130 124 118 114 111 107 101 87 73 69 67 62 56 51 44 42 43 47 53 58 59 58 61
191 210 234 240 254 272 280 276 246 125 122 130 131 127 114 132 152 137 117 119 121 114 109 108 101 105 116 104 106 121 128 137 134 135 139 140 144 146 148 148 147 146 148 150 149 147 145 146 146 146 146 147 149 152 155 155 155 155 156 156 159 162 161 162 160 159 157 155 153 152 152 146 144 139 134 128 124 121 114 109 102 81 66 64 60 56 51 45 41 41 41 46 52 58 59 57 59
204 214 228 253 272 272 282 279 172 118 114 122 117 118 130 140 127 112 114 114 112 112 112 107 103 111 114 105 114 129 134 136 136 139 143 145 147 148 149 150 152 151 152 152 149 147 146 147 146 147 147 148 150 152 154 155 155 155 157 158 160 163 162 162 160 159 157 155 156 155 154 151 149 144 139 137 132 125 116 108 94 70 60 58 54 49 43 38 38 39 38 44 53 61 59 57 59
221 227 212 242 265 256 285 283 142 112 107 119 122 127 140 124 114 124 119 116 121 122 124 118 119 118 109 108 126 136 138 138 140 141 142 146 148 150 153 154 154 154 154 153 151 149 147 148 148 148 148 148 149 151 153 153 155 155 157 160 162 163 162 161 160 159 157 157 157 155 154 154 153 149 145 142 133 125 115 99 78 60 59 57 51 44 39 39 38 37 37 42 52 60 57 57 62
224 261 218 278 280 290 301 295 116 106 107 111 117 127 127 119 132 146 130 132 136 132 128 125 129 121 111 126 135 141 142 144 144 143 143 144 146 149 153 155 154 154 155 155 153 151 149 150 151 150 149 148 149 149 152 153 154 155 157 160 161 162 161 161 161 159 159 158 156 154 154 157 157 155 151 142 131 122 106 83 66 59 62 58 52 44 40 41 40 42 40 43 50 55 53 56 66
221 247 240 300 309 314 313 315 36 93 108 108 125 134 131 137 145 138 134 136 132 132 130 132 132 116 118 132 138 148 147 148 147 145 144 142 144 144 149 153 154 155 156 158 157 154 153 153 153 152 152 151 151 151 152 154 154 155 157 158 159 160 160 162 162 160 159 157 156 156 157 159 155 153 149 142 134 119 99 80 72 67 62 53 48 42 39 37 40 46 48 50 54 53 53 61 73
229 248 241 332 317 320 324 323 320 73 122 147 152 148 139 141 140 132 132 129 126 134 133 138 137 122 142 151 150 155 150 147 146 147 147 146 145 143 147 151 154 156 157 161 160 159 157 156 155 155 157 156 156 156 155 156 156 157 157 158 159 159 161 161 159 158 156 156 158 158 156 154 152 151 148 146 138 117 102 92 80 66 53 43 35 31 33 38 41 48 58 63 61 56 56 72 77
232 252 55 15 305 342 326 317 312 303 135 133 128 134 133 126 128 125 126 126 130 137 139 149 150 143 154 153 149 153 149 146 146 147 147 147 144 144 151 152 155 158 159 163 162 163 162 160 160 158 160 160 159 158 157 157 157 158 158 159 160 159 159 158 157 156 155 156 156 156 156 153 152 152 150 144 129 116 102 89 75 58 44 33 26 25 29 37 43 51 63 69 67 61 66 80 72
217 226 60 330 286 357 295 307 310 270 118 111 120 126 120 104 110 117 126 131 135 143 151 156 155 146 149 150 147 148 148 148 147 146 144 144 145 148 153 154 156 158 160 163 163 165 165 164 162 161 161 160 161 160 159 158 158 161 161 160 159 158 157 156 156 156 156 157 158 160 160 157 155 149 144 136 116 112 102 85 69 53 36 23 21 25 30 36 44 54 60 66 68 66 77 83 66
190 150 129 232 245 214 201 243 279 278 113 152 157 135 123 121 125 130 135 136 141 148 149 146 141 139 145 148 147 147 148 149 150 149 148 149 150 151 153 156 159 158 159 162 164 165 164 164 163 162 161 161 163 161 161 161 162 164 163 161 159 159 158 158 160 161 163 163 165 166 163 159 153 141 137 132 109 103 98 82 70 52 33 24 25 31 39 44 48 57 59 62 67 66 75 77 59
184 122 230 210 237 228 183 187 235 272 242 187 155 140 136 140 142 146 145 140 148 150 133 134 131 132 141 146 149 151 151 151 154 155 154 154 156 156 156 159 161 159 162 163 165 165 164 165 165 164 163 163 164 163 163 163 165 165 164 163 161 162 162 166 168 168 169 168 169 165 160 156 148 137 133 132 115 109 105 86 77 55 37 33 36 37 42 53 56 63 65 66 70 63 63 58 33
182 145 204 227 236 254 236 204 163 206 226 213 151 138 136 146 154 159 156 143 148 141 126 130 131 137 143 148 152 153 153 154 157 160 159 159 160 161 160 162 163 163 165 166 166 166 167 168 167 168 167 166 165 164 165 165 166 165 164 165 166 169 169 172 173 171 171 169 168 164 159 153 144 131 129 142 127 113 113 91 78 43 31 34 41 46 38 43 53 60 64 68 71 63 49 36 16
159 161 186 230 229 230 256 225 133 182 235 192 146 136 135 157 170 162 152 149 150 138 136 140 142 145 148 151 155 156 157 157 159 163 163 163 163 164 165 165 167 166 166 169 169 170 171 171 170 171 170 168 168 167 168 167 167 167 166 168 170 172 172 174 173 173 172 169 167 163 161 153 142 135 133 141 122 118 138 105 85 6 7 21 33 53 35 19 29 37 34 34 42 37 12 5 2
163 195 188 217 232 199 255 223 145 176 220 170 171 149 140 152 177 168 158 162 159 149 145 146 148 150 152 154 157 158 159 161 162 164 167 169 167 167 169 169 169 169 170 173 172 173 173 174 173 172 172 171 171 170 170 169 169 170 168 169 172 172 173 173 173 174 172 172 169 162 163 154 145 150 141 130 133 182 221 195 306 321 347 3 3 5 1 359 6 9 360 360 5 353 341 346 357
201 204 190 214 229 166 213 244 172 152 154 215 182 126 138 147 197 181 171 174 151 150 150 148 151 154 155 156 158 161 162 164 165 166 171 173 171 170 171 172 173 174 176 176 174 175 174 176 176 174 174 173 174 174 172 171 171 172 170 171 173 172 174 175 176 176 174 174 171 168 165 144 137 150 137 147 189 229 275 284 301 321 331 339 341 335 335 338 346 350 336 327 331 321 321 339 355
249 224 200 211 209 164 173 232 194 140 157 184 147 127 157 162 178 134 134 141 139 144 148 148 152 154 157 158 161 164 165 167 168 169 171 173 175 174 173 175 177 177 178 177 177 177 176 177 177 177 176 175 177 176 173 172 174 174 173 176 174 174 179 177 176 178 178 177 174 177 165 137 149 177 168 210 233 246 266 269 287 305 308 315 313 305 314 333 339 319 307 304 309 300 305 319 328
252 244 226 207 197 181 179 209 202 171 167 157 159 170 170 160 143 104 110 124 133 140 145 149 152 154 159 162 163 166 168 169 170 171 172 173 175 174 174 176 178 180 179 179 179 178 179 179 179 180 178 177 178 178 174 173 177 178 178 180 176 178 183 178 179 180 180 180 180 188 172 148 194 214 205 226 246 252 256 260 272 286 296 304 296 288 300 327 325 301 301 304 297 291 296 307 334
243 242 236 209 198 191 184 195 200 206 175 157 170 161 153 153 142 135 126 128 135 141 146 150 153 157 163 165 167 168 169 171 171 172 173 173 174 175 176 178 181 181 182 182 181 181 181 182 182 182 181 179 179 180 177 175 179 181 181 184 181 181 182 178 183 184 184 185 187 198 184 174 209 218 214 225 242 251 255 260 269 279 288 293 295 299 311 320 308 290 297 310 306 302 317 360 56
265 266 260 244 228 200 183 183 191 215 185 159 165 144 149 149 149 150 127 131 137 141 147 152 155 161 166 169 170 170 172 174 174 174 174 175 176 177 178 182 185 184 184 186 185 184 184 184 184 183 184 182 182 182 181 178 180 182 182 185 185 184 180 176 182 188 191 189 189 200 188 189 208 209 211 224 235 246 255 261 273 282 286 286 298 310 314 313 302 290 295 319 353 63 64 86 69
288 296 299 287 275 231 189 183 191 209 175 158 157 140 144 145 171 155 130 136 141 143 148 153 159 163 167 172 171 173 176 176 177 176 176 179 178 178 181 184 186 185 188 190 188 188 187 187 186 185 186 186 187 184 183 182 181 183 181 184 187 184 182 179 183 191 197 198 195 198 190 197 212 212 216 227 232 244 254 259 270 282 290 288 298 304 299 301 303 303 302 342 74 93 87 85 34
293 298 307 298 294 275 196 179 215 244 159 160 153 135 154 153 172 146 138 142 142 144 150 155 162 164 170 174 172 176 179 177 178 180 180 181 180 180 182 184 185 186 191 194 192 192 192 191 188 188 188 189 191 186 184 186 183 185 183 185 188 186 188 183 186 195 199 207 211 211 199 203 222 230 232 236 242 252 256 259 265 275 289 282 287 292 290 299 310 316 313 90 103 113 98 59 19
279 277 271 273 289 284 218 174 209 243 169 164 147 127 175 168 163 147 145 146 142 146 152 158 163 165 172 174 173 179 183 180 179 182 183 184 182 180 184 184 185 188 189 193 195 195 194 193 192 191 191 192 193 189 187 188 186 188 186 186 191 194 195 188 188 198 205 213 221 224 216 215 229 238 241 242 248 255 253 257 259 267 277 273 285 301 308 309 308 332 31 136 130 125 81 50 45
266 271 260 252 281 283 271 221 190 203 191 171 141 110 176 174 161 146 149 151 145 148 153 159 165 167 173 173 173 179 186 185 182 184 186 187 185 183 188 187 186 189 187 191 196 196 194 194 195 194 193 192 193 192 191 190 189 193 193 190 193 196 196 193 189 196 211 214 218 226 225 228 236 240 243 242 244 249 254 260 262 272 279 281 297 317 321 316 300 105 131 163 151 72 83 102 105
269 271 272 243 234 253 272 251 187 189 189 164 135 114 167 170 161 147 156 158 147 151 155 161 167 168 173 173 173 178 186 188 185 187 188 189 188 188 192 189 188 190 189 191 195 196 194 193 196 197 197 195 194 195 194 194 193 195 198 193 193 196 198 199 193 195 210 214 216 225 228 230 237 238 235 236 239 244 256 267 269 276 282 289 305 317 318 331 137 132 141 171 152 49 168 161 156
263 241 246 235 212 224 257 232 177 169 141 145 129 130 155 156 169 152 159 165 152 152 158 163 167 169 174 174 173 178 185 188 187 189 191 190 188 189 193 192 191 194 195 194 193 195 194 193 198 200 201 199 196 196 196 197 196 195 198 196 195 199 202 204 199 197 208 218 220 223 225 227 232 232 228 236 239 239 250 260 264 273 287 297 302 309 25 138 155 155 145 177 241 246 183 185 195
261 243 240 247 234 225 229 180 172 156 134 154 129 125 158 163 176 161 162 168 159 155 161 166 167 168 174 175 175 179 185 189 190 191 193 191 190 190 193 194 195 197 200 199 196 196 194 193 198 203 206 204 198 196 196 199 199 196 197 198 199 203 206 205 205 200 203 220 228 224 224 225 227 227 225 237 238 234 243 250 256 268 287 296 270 155 143 155 166 156 168 218 266 287 196 198 212
241 240 230 241 244 249 237 193 187 160 143 168 145 143 179 170 179 170 163 169 166 161 164 168 168 169 174 176 176 181 186 190 193 193 193 193 192 192 194 196 196 198 202 202 201 197 194 195 199 204 210 208 201 196 197 200 201 200 197 197 201 206 208 205 207 203 196 212 228 229 229 227 228 227 226 238 238 230 236 245 251 256 268 251 175 164 173 188 181 179 219 243 271 262 185 172 225
235 242 232 225 227 243 246 211 178 163 149 168 160 166 188 171 182 175 161 171 174 166 167 170 169 168 173 176 177 182 186 191 194 194 194 194 194 193 194 196 195 199 202 201 202 197 193 196 199 204 209 210 205 198 198 201 202 204 200 197 202 206 209 206 207 208 200 207 221 227 232 233 231 229 231 241 236 229 235 243 244 244 246 203 179 195 222 223 207 207 232 252 253 178 158 149 216
240 249 246 237 227 232 241 208 165 160 155 174 170 175 188 165 172 172 162 171 172 165 168 171 169 168 174 177 178 183 188 192 195 195 195 196 195 194 194 196 196 198 202 201 200 197 194 196 199 202 206 210 210 203 202 204 205 207 204 203 205 206 210 209 207 209 204 207 220 226 233 236 234 231 233 237 233 231 237 238 235 236 222 188 191 223 246 235 225 224 233 240 182 156 160 185 188
237 248 258 255 245 246 245 199 162 165 166 177 171 169 185 166 163 168 166 171 171 170 172 173 172 171 175 179 180 184 189 191 192 195 197 197 196 196 196 198 198 199 202 202 202 200 196 197 199 201 205 209 213 210 206 207 209 210 209 209 209 210 214 214 213 212 202 205 221 228 233 236 233 231 230 232 234 235 234 227 222 220 205 200 213 237 244 230 227 230 229 204 162 147 153 177 166
237 244 255 260 262 271 263 215 163 169 170 173 171 167 185 172 160 162 167 174 174 177 178 177 177 173 175 181 182 184 186 188 190 194 196 197 197 196 196 199 200 201 204 205 205 204 201 200 200 201 204 208 213 215 211 209 210 211 213 213 213 214 217 218 220 219 204 203 218 228 233 236 232 226 225 233 236 229 223 220 213 209 208 216 228 234 236 236 235 224 208 176 165 153 144 142 123
237 242 243 251 256 267 271 238 178 178 170 164 166 168 184 176 163 165 174 177 175 181 184 183 182 180 178 182 184 184 185 186 189 192 195 198 197 195 196 199 200 201 204 206 208 207 205 205 204 204 205 208 211 215 215 211 210 211 213 214 214 215 218 220 219 219 210 206 217 225 229 232 229 226 229 234 231 215 212 217 210 207 215 223 220 222 229 234 222 191 174 165 168 170 166 154 119
227 235 241 247 246 251 259 252 224 185 168 162 155 163 202 181 166 167 173 175 176 184 192 192 186 184 183 183 185 186 186 188 189 191 193 197 199 197 197 199 200 200 203 206 209 209 208 208 209 208 207 208 211 215 217 212 208 208 207 207 208 206 210 217 215 212 209 208 216 221 222 225 224 226 231 231 224 215 215 217 207 206 218 214 201 211 215 216 205 178 172 175 177 185 186 165 147
225 226 234 248 252 251 253 255 251 173 170 173 149 157 238 194 167 168 170 173 180 183 196 208 191 182 183 183 186 188 189 191 191 193 194 195 198 199 199 200 200 201 203 207 210 211 210 208 210 211 208 209 211 215 217 214 208 206 204 204 202 197 199 209 214 211 208 207 212 215 217 223 223 224 226 223 218 216 216 211 205 207 212 202 198 211 212 211 200 178 179 191 182 180 175 163 155
233 218 220 237 252 258 260 260 253 169 179 189 163 155 223 209 176 176 177 178 185 182 191 212 198 183 182 183 187 189 190 191 192 195 197 196 198 199 201 201 202 202 204 207 209 210 211 210 211 213 212 210 211 214 217 216 212 208 207 208 207 203 202 208 214 214 210 205 207 211 217 221 219 217 219 217 213 212 210 205 208 213 209 207 208 208 204 186 186 191 194 191 179 173 165 164 164
235 222 211 220 236 251 261 265 258 214 172 186 187 168 156 207 199 183 180 181 189 187 189 206 199 185 184 185 188 190 190 191 193 195 197 199 199 200 202 204 204 204 204 205 208 210 213 214 214 215 216 213 212 214 216 217 215 212 210 210 211 210 210 211 212 211 207 200 205 213 218 220 217 216 218 216 212 209 205 203 211 215 208 216 210 189 197 184 184 198 203 184 178 180 178 177 178
232 232 225 218 223 235 248 260 264 243 209 196 193 174 154 222 217 186 179 181 191 193 192 200 193 182 183 188 191 192 191 193 195 196 198 200 201 201 204 205 205 205 205 206 208 211 214 216 216 216 217 216 214 214 215 218 218 216 214 212 211 213 216 216 212 208 203 198 206 215 219 219 215 213 214 215 214 209 204 205 212 215 209 220 221 205 217 207 195 202 209 202 190 190 192 193 194
227 233 244 242 232 229 233 243 259 254 242 226 195 180 177 226 209 183 182 187 190 191 193 198 192 185 186 191 195 192 191 194 197 198 199 202 203 204 204 205 206 205 206 208 209 212 213 215 216 216 217 218 216 214 215 217 218 217 216 215 214 214 215 216 213 207 202 201 208 216 218 216 209 209 212 215 216 210 206 205 208 212 215 227 235 226 223 216 204 210 227 239 220 196 193 196 199
222 227 242 254 253 242 234 229 234 253 251 226 199 188 188 214 209 184 184 189 187 183 187 191 191 191 193 194 195 193 191 192 196 200 202 203 205 205 204 205 206 205 206 207 208 211 213 215 216 217 217 218 218 216 215 215 217 217 217 218 217 216 216 214 212 207 203 205 211 215 216 212 209 213 215 214 216 213 208 203 200 206 217 228 236 230 224 213 201 212 232 233 215 194 186 193 200
221 218 222 241 261 264 269 246 214 232 241 223 213 207 202 215 217 194 188 185 184 182 181 185 187 191 194 194 194 194 192 193 196 200 202 202 202 202 203 205 206 205 205 206 207 210 213 215 216 217 217 217 217 217 216 215 216 217 217 219 219 219 218 216 213 209 207 209 212 212 210 208 210 214 216 215 216 217 211 200 194 202 215 224 229 230 225 209 203 210 218 214 203 194 186 190 199
220 219 206 212 231 241 249 248 215 224 237 219 218 229 223 225 208 189 190 187 185 187 185 187 189 190 193 195 196 196 194 193 196 198 200 199 199 200 202 204 204 204 205 205 206 208 211 214 215 216 216 216 216 217 217 216 216 216 217 218 219 220 220 219 216 213 211 211 211 208 206 209 212 213 217 218 217 220 218 205 201 209 221 223 219 231 230 211 209 209 210 208 199 198 193 191 197
210 212 202 190 191 213 228 242 236 225 236 223 218 226 226 241 221 186 192 196 192 190 190 191 192 193 196 197 199 199 196 196 196 197 198 198 199 201 202 203 204 205 205 205 205 207 209 211 214 216 216 216 216 216 217 217 217 217 217 218 219 219 219 219 218 216 215 214 211 209 210 214 217 218 221 222 219 222 223 215 212 218 227 224 215 229 234 218 211 208 209 209 201 202 202 198 200
208 205 201 198 190 206 214 217 230 224 238 231 223 219 193 206 217 191 195 201 194 190 192 195 192 192 196 197 197 197 197 198 198 197 198 200 201 201 202 203 205 205 205 204 204 206 208 210 212 214 215 215 215 215 216 217 218 218 217 218 219 219 219 219 218 218 217 217 215 213 215 218 222 223 223 223 221 222 223 217 216 222 228 229 222 227 229 222 219 215 210 208 204 204 206 207 206
210 197 206 215 195 193 209 214 223 224 239 246 230 218 181 190 220 225 221 203 191 189 192 196 191 187 189 189 190 192 195 197 196 196 198 201 202 202 202 203 204 205 205 204 205 205 207 209 211 213 214 215 216 216 216 217 219 218 217 217 218 218 219 218 218 217 217 219 219 217 218 220 223 224 224 223 221 223 225 219 218 224 229 232 231 228 226 223 226 226 216 207 206 206 209 212 209
187 202 217 216 191 191 214 237 253 240 230 237 233 234 213 192 230 252 253 206 179 187 190 191 183 176 178 180 182 188 192 193 192 193 197 201 203 203 202 202 202 203 204 205 206 206 207 209 210 211 213 215 217 217 216 217 218 219 218 217 217 217 218 217 217 217 215 218 220 220 221 222 222 222 220 220 220 223 226 223 224 228 230 235 235 228 224 223 225 230 224 214 214 215 213 214 212
186 204 207 192 223 234 204 213 245 235 235 234 231 239 225 194 213 239 244 210 167 182 184 176 169 165 169 176 181 186 190 192 193 194 196 200 203 204 203 203 204 204 206 207 208 207 207 209 211 211 212 214 217 217 217 218 218 218 218 216 216 217 218 218 217 217 215 216 218 219 221 222 223 221 218 218 220 224 225 225 229 231 233 238 236 224 222 222 221 226 227 222 223 226 221 215 215
212 230 192 162 220 228 205 216 213 209 234 243 241 245 218 201 201 206 223 213 167 176 181 173 167 165 169 176 182 186 188 191 195 198 200 202 205 206 205 205 206 207 209 209 208 207 208 210 212 213 214 216 218 217 217 218 217 218 218 217 216 216 218 219 217 217 216 217 219 219 220 222 223 222 220 218 220 223 225 227 230 233 235 240 237 225 221 222 219 220 225 224 222 226 227 221 217
211 241 244 222 219 199 193 215 207 187 220 226 236 249 233 222 207 191 207 208 183 180 182 179 173 171 173 175 181 186 187 192 197 201 205 207 208 209 208 207 207 208 209 208 207 207 208 209 211 214 215 216 217 217 216 217 217 217 218 217 216 216 218 219 218 217 217 219 220 220 221 222 223 223 223 222 223 225 227 229 231 234 236 240 238 228 221 223 221 217 221 223 220 222 226 225 221
195 216 230 232 234 203 188 203 207 189 194 221 233 242 245 246 224 202 206 206 201 193 182 181 179 177 179 181 184 186 188 194 199 203 205 208 209 211 210 209 207 206 206 206 207 208 208 209 211 213 214 214 215 216 216 216 217 217 217 217 216 216 218 220 219 218 218 220 221 222 223 223 223 225 225 226 228 229 231 233 234 236 238 241 239 232 224 223 224 219 218 221 221 220 223 226 223
189 199 221 226 218 218 215 214 215 200 195 216 221 232 254 254 238 234 229 210 206 198 185 181 178 179 182 185 186 189 192 196 200 203 205 206 207 209 209 208 205 203 204 206 207 207 208 209 211 212 213 214 215 216 216 216 216 216 217 217 217 217 219 221 220 219 220 221 222 223 224 224 225 226 228 229 231 232 233 235 236 238 240 241 240 236 230 226 226 224 219 220 221 219 220 222 221